[[{"header":{"parameterUnit":"m.s-1","parameterCategory":1,"la1":30.2992,"la2":30.254,"lo1":-89.0895,"lo2":-89.0443,"dy":0.0025,"dx":0.0025,"nx":19,"ny":19,"refTime":"2026-05-18T21:00:00:Z","depth":0,"parameterNumber":2,"parameterNumberName":"U-component_of_WINDS"},"data":[0,0,0,-4.6883,-4.6886,-4.7023,-4.7023,-4.7205,-4.7207,0,0,0,0,0,0,0,0,0,0,0,-4.6847,-4.6848,-4.6882,-4.6886,-4.7023,-4.7023,-4.7205,-4.7207,0,0,0,0,0,0,0,0,0,0,0,-4.6846,-4.6848,-4.6849,-4.6886,-4.7023,-4.7023,-4.7205,-4.7099,0,0,0,0,0,0,0,0,0,0,-4.6964,-4.6936,-4.6847,-4.6849,-4.6887,-4.7023,-4.7023,-4.7093,-4.7105,-4.7146,0,-4.7185,0,-4.7199,-4.722,-4.722,0,0,0,-4.6882,-4.6926,-4.6959,-4.685,-4.6889,-4.7022,-4.696,-4.71,-4.7113,-4.7162,-4.7187,-4.7194,-4.7202,-4.7221,-4.7222,-4.7473,-4.7475,0,0,-4.6874,-4.6874,-4.695,-4.6968,-4.6948,-4.6956,-4.6964,-4.7108,-4.7135,-4.7188,-4.7198,-4.7205,-4.7222,-4.7224,-4.7472,-4.7474,0,0,0,-4.6855,-4.6868,-4.6898,-4.6961,-4.6985,-4.696,-4.697,-4.7129,-4.7138,-4.72,-4.7207,-4.7223,-4.7226,-4.7471,-4.7473,-4.7538,0,0,0,-4.685,-4.6857,-4.6894,-4.6895,-4.6982,-4.7059,-4.6987,-4.7128,-4.7145,-4.7206,-4.7223,-4.7227,-4.7469,-4.7472,-4.7533,-4.7568,0,0,0,-4.6836,-4.6855,-4.6877,-4.6895,-4.6954,-4.7056,-4.7074,-4.7132,-4.7149,-4.7221,-4.7228,-4.7468,-4.7471,-4.7528,-4.756,-4.7632,0,0,0,-4.682,-4.6933,-4.6878,-4.7008,-4.6953,-4.7097,-4.7073,-4.718,-4.7249,-4.7224,-4.7469,-4.7472,-4.7527,-4.7556,-4.7628,-4.7691,-4.7718,0,0,-4.6962,-4.695,-4.7027,-4.6981,-4.7134,-4.7076,-4.7238,-4.7302,-4.7309,-4.7418,-4.7424,-4.7534,-4.756,-4.7631,-4.7874,-4.7895,0,0,0,-4.7071,-4.7126,-4.7167,-4.7233,-4.7285,-4.7332,-4.7371,-4.7395,-4.7487,-4.7365,-4.7581,-4.7596,-4.7638,-4.7668,-4.7687,-4.7722,-4.7487,-4.7487,-4.7486,-4.7269,-4.7274,-4.74,-4.742,-4.7485,-4.7525,-4.7577,-4.7616,-4.7601,-4.7652,-4.7683,-4.783,-4.7866,-4.7879,-4.7916,-4.7719,-4.772,-4.772,-4.772,-4.7476,-4.7553,-4.7532,-4.7646,-4.765,-4.7746,-4.7789,-4.7775,-4.7864,-4.7807,-4.7844,-4.7778,-4.7903,-4.7935,-4.7725,-4.7724,-4.7723,-4.7723,-4.7723,-4.7605,-4.7642,-4.767,-4.7766,-4.784,-4.7857,-4.7944,-4.7945,-4.7946,-4.7983,-4.8015,-4.8014,-4.8011,-4.7999,-4.7999,-4.8,-4.8,-4.8001,-4.8001,-4.7725,-4.7755,-4.7828,-4.7894,-4.7936,-4.7992,-4.8035,-4.8076,-4.8122,-4.8116,-4.8116,-4.8095,-4.7915,-4.7869,-4.8009,-4.8007,-4.8006,-4.8006,-4.8005,-4.7929,-4.7883,-4.7996,-4.8039,-4.8116,-4.8188,-4.8189,-4.8274,-4.8309,-4.8351,-4.8324,-4.8192,-4.8179,-4.8164,-4.8125,-4.8324,-4.8324,-4.8324,-4.8324,-4.8035,-4.803,-4.8145,-4.8213,-4.828,-4.8293,-4.8419,-4.8453,-4.8481,-4.8503,-4.8475,-4.8425,-4.841,-4.8406,-4.8386,-4.835,-4.8601,-4.8601,-4.8601,-4.816,-4.8161,-4.8268,-4.8296,-4.8357,-4.8408,-4.8527,-4.8605,-4.8628,-4.8612,-4.8519,-4.8508,-4.8426,-4.84,-4.8379,-4.8349,-4.8282,0,0]},{"header":{"parameterUnit":"m.s-1","parameterCategory":1,"la1":30.2992,"la2":30.254,"lo1":-89.0895,"lo2":-89.0443,"dy":0.0025,"dx":0.0025,"nx":19,"ny":19,"refTime":"2026-05-18T21:00:00:Z","depth":0,"parameterNumber":3,"parameterNumberName":"V-component_of_WINDS"},"data":[0,0,0,3.3475,3.3476,3.354,3.3541,3.3628,3.3629,0,0,0,0,0,0,0,0,0,0,0,3.346,3.346,3.3474,3.3476,3.354,3.3541,3.3628,3.3629,0,0,0,0,0,0,0,0,0,0,0,3.3459,3.346,3.3461,3.3476,3.354,3.3541,3.3627,3.3577,0,0,0,0,0,0,0,0,0,0,3.3513,3.3504,3.346,3.3461,3.3477,3.354,3.3541,3.3574,3.358,3.3601,0,3.3622,0,3.3627,3.3635,3.3635,0,0,0,3.3473,3.3499,3.3513,3.3461,3.3478,3.354,3.351,3.3577,3.3584,3.3609,3.3623,3.3626,3.3628,3.3635,3.3636,3.3775,3.3775,0,0,3.3469,3.3473,3.3509,3.3518,3.3509,3.3508,3.3512,3.3581,3.3597,3.3624,3.3628,3.363,3.3636,3.3637,3.3774,3.3775,0,0,0,3.3461,3.3471,3.3483,3.3514,3.3525,3.351,3.3515,3.3594,3.3597,3.3629,3.3631,3.3637,3.3638,3.3773,3.3774,3.382,0,0,0,3.3459,3.3466,3.3481,3.3484,3.3524,3.3561,3.3526,3.3593,3.36,3.3631,3.3637,3.3639,3.3772,3.3774,3.3817,3.384,0,0,0,3.3454,3.3465,3.3476,3.3484,3.3512,3.3559,3.3567,3.3594,3.3602,3.3635,3.3639,3.3771,3.3773,3.3814,3.3836,3.3879,0,0,0,3.3449,3.3514,3.3477,3.355,3.3512,3.3588,3.3566,3.3622,3.3656,3.3637,3.3772,3.3774,3.3813,3.3833,3.3876,3.3917,3.3935,0,0,3.3533,3.3524,3.3567,3.3536,3.362,3.3577,3.3667,3.3694,3.3692,3.3747,3.375,3.3818,3.3835,3.3879,3.4029,3.4043,0,0,0,3.3595,3.3626,3.3647,3.3681,3.3705,3.3727,3.374,3.375,3.3797,3.3722,3.3845,3.3855,3.388,3.39,3.3912,3.3933,3.3783,3.3783,3.3783,3.3718,3.3715,3.3786,3.3792,3.3825,3.3839,3.3866,3.3881,3.3866,3.3896,3.3912,3.4004,3.4027,3.4036,3.4059,3.3933,3.3933,3.3933,3.3933,3.3841,3.3885,3.3867,3.3929,3.3925,3.3977,3.3994,3.3982,3.4029,3.3991,3.4013,3.3972,3.4051,3.4071,3.3937,3.3936,3.3936,3.3935,3.3935,3.3922,3.3943,3.3956,3.4007,3.4046,3.4048,3.4096,3.409,3.4084,3.4106,3.4124,3.4123,3.4122,3.4115,3.4115,3.4116,3.4116,3.4116,3.4116,3.4001,3.4015,3.4056,3.4089,3.4111,3.414,3.4156,3.4177,3.4199,3.4191,3.4191,3.4174,3.406,3.4031,3.4121,3.412,3.412,3.4119,3.4119,3.4128,3.4099,3.4164,3.4186,3.4225,3.4265,3.4258,3.4302,3.4319,3.4343,3.4322,3.4238,3.4228,3.4218,3.4195,3.4322,3.4322,3.4322,3.4322,3.4197,3.4192,3.4258,3.4295,3.433,3.4331,3.4404,3.4418,3.4427,3.4437,3.4418,3.4386,3.4377,3.4372,3.4359,3.4338,3.4498,3.4498,3.4498,3.4276,3.4274,3.4338,3.4349,3.4379,3.4405,3.4474,3.4516,3.452,3.4505,3.4445,3.4438,3.4387,3.437,3.4354,3.4334,3.4294,0,0]}]]